+ View the NASA Portal
+ Center for Near-Earth Object Studies
IMPORTANT:
The SSD Announcement email list is now available. Major changes are coming in the near future, including possible hostname and/or URL changes. To be notified of such changes, subscribe to this email list.
Please visit
this page
for more details.
Don't show this message again
JPL Small-Body Database Browser
Search:
[
help
]
344325 (2001 VU8)
Classification:
Main-belt Asteroid
SPK-ID:
2344325
[
Ephemeris
|
Orbit Diagram
|
Orbital Elements
|
Mission Design
|
Physical Parameters
|
Discovery Circumstances
|
Close-Approach Data
]
[ show orbit diagram ]
Orbital Elements at Epoch 2458600.5 (2019-Apr-27.0) TDB
Reference:
JPL 12
(heliocentric ecliptic J2000)
Element
Value
Uncertainty (1-sigma)
Units
e
.111118227221257
6.1329e-08
a
3.104478436973631
3.239e-08
au
q
2.759514296610503
1.896e-07
au
i
15.66596658487995
7.2589e-06
deg
node
246.6134326085622
2.2044e-05
deg
peri
181.6797361625243
3.7492e-05
deg
M
64.24258894548144
2.9211e-05
deg
t
p
2458243.965195057853
(2018-May-05.46519506)
0.00016081
TDB
period
1997.935199779972
5.47
3.1268e-05
8.561e-08
d
yr
n
.180186024071074
2.8199e-09
deg/d
Q
3.44944257733676
3.599e-08
au
Orbit Determination Parameters
# obs. used (total)
230
data-arc span
6339 days (17.36 yr)
first obs. used
2001-10-21
last obs. used
2019-02-28
planetary ephem.
DE431
SB-pert. ephem.
SB431-N16
condition code
0
norm. resid. RMS
.53344
source
ORB
producer
Otto Matic
solution date
2019-Jul-13 10:17:04
Additional Information
Earth MOID
= 1.77334 au
Jupiter MOID
= 1.86944 au
T_jup
= 3.154
[ show covariance matrix ]
[
Ephemeris
|
Orbit Diagram
|
Orbital Elements
|
Mission Design
|
Physical Parameters
|
Discovery Circumstances
|
Close-Approach Data
]
Physical Parameter Table
Parameter
Symbol
Value
Units
Sigma
Reference
Notes
absolute magnitude
H
15.4
n/a
MPO339097
344325 (2001 VU8)
Discovered 2001-Nov-09 by LINEAR at Socorro
Reference:
20121128/Numbers.arc
Last Updated:
2012-12-03
[ show close-approach data ]
[
Ephemeris
|
Orbit Diagram
|
Orbital Elements
|
Mission Design
|
Physical Parameters
|
Discovery Circumstances
|
Close-Approach Data
]
2019-Dec-10 06:10 UT
(server date/time)
Site Manager:
Ryan S. Park
Webmaster
:
Alan B. Chamberlin